Location: Peebles
(55.6412°N, 3.1714°W)
Time: 23:16:42
(UTC+00:00)

CSL-04 Deb - Visible Passes

Search period start: 02 December 2022 00:00
Search period end: 12 December 2022 00:00
Orbit: 670 x 792 km, 98.6° (Epoch: 02 December)

Date Brightness Start Highest point End Pass type
(mag) Time Alt. Az. Time Alt. Az. Time Alt. Az.
02 Dec ? 07:31:19 10° NNE 07:35:39 40° E 07:39:59 10° SSE visible
02 Dec ? 17:11:33 10° ESE 17:15:18 24° NE 17:19:00 10° N visible
02 Dec ? 18:48:26 10° S 18:53:14 71° WSW 18:57:55 10° NNW visible
02 Dec ? 20:30:17 10° WSW 20:32:22 13° W 20:34:27 10° WNW visible
03 Dec ? 06:45:23 10° NE 06:48:29 18° E 06:51:35 10° SE visible
03 Dec ? 16:27:14 10° ENE 16:29:11 12° NE 16:31:05 10° NNE visible
03 Dec ? 18:01:55 10° SE 18:06:33 52° ENE 18:11:05 10° N visible
03 Dec ? 19:40:58 10° SSW 19:45:06 28° W 19:49:09 10° NW visible
04 Dec ? 07:36:08 10° NNE 07:40:32 43° E 07:44:57 10° S visible
04 Dec ? 17:16:18 10° ESE 17:20:08 25° ENE 17:23:54 10° N visible
04 Dec ? 18:53:22 10° S 18:58:07 65° WSW 19:02:45 10° NNW visible
04 Dec ? 20:35:44 10° WSW 20:37:19 11° W 20:38:53 10° WNW visible
05 Dec ? 06:50:06 10° NE 06:53:24 19° E 06:56:43 10° SE visible
05 Dec ? 16:31:49 10° ENE 16:33:58 13° NE 16:36:07 10° NNE visible
05 Dec ? 18:06:46 10° SE 18:11:23 56° ENE 18:15:56 10° N visible
05 Dec ? 19:46:01 10° SSW 19:50:00 26° W 19:53:56 10° NW visible
06 Dec ? 17:21:02 10° ESE 17:24:57 27° ENE 17:28:48 10° N visible
06 Dec ? 18:58:18 10° S 19:02:59 60° WSW 19:07:35 10° NNW visible
06 Dec ? 20:41:31 10° W 20:42:15 10° W 20:43:00 10° WNW visible
07 Dec ? 06:54:49 10° NE 06:58:18 21° E 07:01:48 10° SE visible
07 Dec ? 16:36:24 10° ENE 16:38:45 14° NE 16:41:06 10° NNE visible
07 Dec ? 18:11:36 10° SSE 18:16:14 60° ENE 18:20:48 10° N visible
07 Dec ? 19:51:05 10° SSW 19:54:54 24° W 19:58:41 10° NW visible
08 Dec ? 17:25:47 10° ESE 17:29:45 28° ENE 17:33:41 10° N visible
08 Dec ? 19:03:13 10° S 19:07:51 55° WSW 19:12:24 10° NNW visible
09 Dec ? 06:59:33 10° NE 07:03:12 23° E 07:06:53 10° SE visible
09 Dec ? 16:41:00 10° E 16:43:32 15° NE 16:46:04 10° NNE visible
09 Dec ? 18:16:26 10° SSE 18:21:04 65° ENE 18:25:38 10° NNW visible
09 Dec ? 19:56:09 10° SW 19:59:47 22° W 20:03:25 10° NW visible
10 Dec ? 17:30:31 10° ESE 17:34:33 30° ENE 17:38:34 10° N visible
10 Dec ? 19:08:09 10° S 19:12:42 50° W 19:17:13 10° NNW visible
11 Dec ? 07:04:17 10° NE 07:08:05 25° E 07:11:55 10° SSE visible
11 Dec ? 16:45:36 10° E 16:48:18 16° NE 16:51:00 10° NNE visible
11 Dec ? 18:21:15 10° SSE 18:25:53 71° ENE 18:30:28 10° NNW visible
11 Dec ? 20:01:12 10° SW 20:04:41 20° W 20:08:07 10° NW visible
